TYPHON7 LOXZ-LOXZ

Flight info

Callsign TYPHON7
Flight time 0h 30m
Altitude 8000
Route DCT XZ
Aircraft EUFI/M-X/0033

Departure

Time 2026-05-05 07:59
Airport Hinterstoisser Air Base (LOXZ)

Arrival

Time 2026-05-05 08:29
Airport Hinterstoisser Air Base (LOXZ)
Time Latitude Longitude Altitude Speed Heading
2026-05-05 07:55 47.20413 14.75757 2205 ft 0 kts 261°
2026-05-05 07:59 47.20374 14.75417 2213 ft 119 kts 261°
2026-05-05 07:59 47.20148 14.73245 2746 ft 305 kts 260°
2026-05-05 07:59 47.19820 14.69777 4196 ft 349 kts 263°
2026-05-05 07:59 47.20042 14.66212 5436 ft 361 kts 286°
2026-05-05 08:00 47.21284 14.62915 5771 ft 395 kts 302°
2026-05-05 08:00 47.22748 14.59392 5999 ft 404 kts 297°
2026-05-05 08:00 47.24287 14.55117 6468 ft 519 kts 297°
2026-05-05 08:00 47.26508 14.50989 6303 ft 520 kts 328°
2026-05-05 08:01 47.29971 14.49355 5527 ft 520 kts 347°
2026-05-05 08:01 47.33523 14.48123 5391 ft 524 kts 345°
2026-05-05 08:01 47.37041 14.46774 5360 ft 521 kts 346°
2026-05-05 08:01 47.40389 14.44954 5564 ft 516 kts 319°
2026-05-05 08:02 47.42067 14.40511 7240 ft 507 kts 273°
2026-05-05 08:02 47.40928 14.35690 9409 ft 523 kts 226°
2026-05-05 08:02 47.37772 14.33759 7020 ft 485 kts 158°
2026-05-05 08:02 47.35523 14.37583 5423 ft 511 kts 128°
2026-05-05 08:03 47.33266 14.41589 4650 ft 514 kts 134°
2026-05-05 08:03 47.30647 14.45129 4029 ft 508 kts 140°
2026-05-05 08:03 47.27981 14.48469 3672 ft 502 kts 140°
2026-05-05 08:03 47.25498 14.51530 3361 ft 434 kts 140°
2026-05-05 08:04 47.23488 14.54476 3277 ft 380 kts 127°
2026-05-05 08:04 47.22283 14.57765 3431 ft 370 kts 112°
2026-05-05 08:04 47.21348 14.61224 3374 ft 350 kts 115°
2026-05-05 08:04 47.20414 14.64357 3389 ft 316 kts 111°
2026-05-05 08:05 47.19633 14.67116 3613 ft 271 kts 111°
2026-05-05 08:05 47.19237 14.69647 3630 ft 239 kts 96°
2026-05-05 08:05 47.19309 14.72086 3523 ft 237 kts 83°
2026-05-05 08:05 47.19517 14.74448 3523 ft 234 kts 84°
2026-05-05 08:06 47.19720 14.76795 3532 ft 228 kts 83°
2026-05-05 08:06 47.19914 14.79080 3564 ft 219 kts 84°
2026-05-05 08:06 47.20782 14.80886 3345 ft 232 kts 12°
2026-05-05 08:06 47.22016 14.80114 3410 ft 210 kts 284°
2026-05-05 08:07 47.21652 14.78210 3071 ft 206 kts 228°
2026-05-05 08:07 47.20689 14.76749 2644 ft 194 kts 232°
2026-05-05 08:07 47.20301 14.75071 2953 ft 130 kts 248°
2026-05-05 08:07 47.19804 14.73680 3285 ft 163 kts 219°
2026-05-05 08:08 47.18673 14.73763 2814 ft 207 kts 132°
2026-05-05 08:08 47.18115 14.75770 2884 ft 209 kts 94°
2026-05-05 08:08 47.18241 14.77831 2774 ft 200 kts 81°
2026-05-05 08:08 47.18840 14.79602 2823 ft 198 kts 46°
2026-05-05 08:09 47.20083 14.80563 2895 ft 211 kts
2026-05-05 08:09 47.21376 14.79811 3102 ft 198 kts 290°
2026-05-05 08:09 47.21156 14.78031 3136 ft 206 kts 229°
2026-05-05 08:09 47.20482 14.76273 2453 ft 192 kts 257°
2026-05-05 08:10 47.20290 14.74502 2232 ft 152 kts 257°
2026-05-05 08:10 47.20100 14.73022 2323 ft 186 kts 259°
2026-05-05 08:10 47.19898 14.70909 3287 ft 220 kts 262°
2026-05-05 08:10 47.19702 14.68453 3465 ft 259 kts 264°
2026-05-05 08:11 47.19412 14.65155 3721 ft 422 kts 262°
2026-05-05 08:11 47.18932 14.60131 4345 ft 509 kts 261°
2026-05-05 08:11 47.18413 14.54942 6167 ft 522 kts 261°
2026-05-05 08:11 47.17900 14.49557 7400 ft 545 kts 260°
2026-05-05 08:12 47.17302 14.44114 7345 ft 539 kts 254°
2026-05-05 08:12 47.15730 14.39184 7152 ft 533 kts 233°
2026-05-05 08:12 47.12983 14.35317 7430 ft 572 kts 211°
2026-05-05 08:12 47.09118 14.34956 7840 ft 590 kts 161°
2026-05-05 08:13 47.07212 14.39781 7349 ft 599 kts 84°
2026-05-05 08:13 47.08529 14.45648 7792 ft 610 kts 69°
2026-05-05 08:13 47.09789 14.51574 7825 ft 607 kts 81°
2026-05-05 08:13 47.10043 14.57744 7801 ft 614 kts 96°
2026-05-05 08:14 47.09176 14.63803 7726 ft 604 kts 109°
2026-05-05 08:14 47.07888 14.69660 7861 ft 605 kts 109°
2026-05-05 08:14 47.06600 14.75579 7943 ft 609 kts 109°
2026-05-05 08:14 47.05326 14.81477 7977 ft 604 kts 109°
2026-05-05 08:15 47.04048 14.87395 7962 ft 613 kts 109°
2026-05-05 08:15 47.02773 14.93343 7859 ft 615 kts 109°
2026-05-05 08:15 47.01528 14.99218 6978 ft 570 kts 109°
2026-05-05 08:15 47.00500 15.04489 5239 ft 509 kts 105°
2026-05-05 08:16 46.99917 15.09299 3903 ft 460 kts 95°
2026-05-05 08:16 46.99810 15.13679 3784 ft 403 kts 92°
2026-05-05 08:16 46.99730 15.17551 3809 ft 358 kts 92°
2026-05-05 08:16 46.99640 15.21013 3852 ft 323 kts 94°
2026-05-05 08:17 46.99564 15.24135 3866 ft 292 kts 94°
2026-05-05 08:17 46.99495 15.26969 3662 ft 271 kts 94°
2026-05-05 08:17 46.99440 15.29723 3029 ft 265 kts 94°
2026-05-05 08:17 46.99385 15.32311 2833 ft 242 kts 93°
2026-05-05 08:18 46.99339 15.34747 2789 ft 246 kts 94°
2026-05-05 08:18 46.99302 15.37219 2756 ft 243 kts 95°
2026-05-05 08:18 46.99262 15.39700 2439 ft 245 kts 94°
2026-05-05 08:18 46.99230 15.42126 2115 ft 228 kts 94°
2026-05-05 08:19 46.99211 15.44349 2023 ft 217 kts 94°
2026-05-05 08:19 46.99409 15.46525 1968 ft 224 kts 60°
2026-05-05 08:19 47.00577 15.47769 1951 ft 221 kts
2026-05-05 08:19 47.02013 15.47191 1950 ft 213 kts 335°
2026-05-05 08:20 47.03194 15.46014 1983 ft 208 kts 290°
2026-05-05 08:20 47.03209 15.44019 2174 ft 198 kts 238°
2026-05-05 08:20 47.02158 15.42905 2047 ft 193 kts 177°
2026-05-05 08:20 47.00930 15.43415 1465 ft 183 kts 162°
2026-05-05 08:21 46.99696 15.43806 1131 ft 171 kts 169°
2026-05-05 08:21 46.98604 15.44102 1159 ft 186 kts 169°
2026-05-05 08:21 46.97443 15.43201 1761 ft 278 kts 261°
2026-05-05 08:21 46.97479 15.39971 2606 ft 368 kts 270°
2026-05-05 08:22 46.97608 15.35795 3450 ft 448 kts 271°
2026-05-05 08:22 46.97780 15.31136 4757 ft 437 kts 279°
2026-05-05 08:22 46.98712 15.27088 6989 ft 411 kts 289°
2026-05-05 08:22 47.00083 15.23235 6949 ft 427 kts 302°
2026-05-05 08:23 47.01794 15.19557 7870 ft 460 kts 301°
2026-05-05 08:23 47.03585 15.15687 7919 ft 457 kts 301°
2026-05-05 08:23 47.05352 15.11868 7925 ft 454 kts 302°
2026-05-05 08:23 47.07124 15.08029 7949 ft 456 kts 302°
2026-05-05 08:24 47.08900 15.04177 7942 ft 455 kts 302°
2026-05-05 08:24 47.10673 15.00329 7880 ft 456 kts 301°
2026-05-05 08:24 47.12369 14.96654 7357 ft 410 kts 301°
2026-05-05 08:24 47.13859 14.93264 6371 ft 384 kts 296°
2026-05-05 08:25 47.15057 14.89955 5995 ft 350 kts 301°
2026-05-05 08:25 47.16816 14.87769 5880 ft 321 kts 334°
2026-05-05 08:25 47.18843 14.86909 5745 ft 290 kts 340°
2026-05-05 08:25 47.20777 14.86146 4773 ft 281 kts 338°
2026-05-05 08:26 47.22070 14.84722 4238 ft 216 kts 293°
2026-05-05 08:26 47.22319 14.82661 4001 ft 206 kts 257°
2026-05-05 08:26 47.21650 14.80842 3748 ft 211 kts 236°
2026-05-05 08:26 47.20990 14.78951 3512 ft 203 kts 247°
2026-05-05 08:27 47.20486 14.77054 3198 ft 194 kts 241°
2026-05-05 08:27 47.19413 14.75839 3286 ft 204 kts 188°
2026-05-05 08:27 47.18053 14.76386 3305 ft 214 kts 136°
2026-05-05 08:27 47.17439 14.78395 3180 ft 224 kts 86°
2026-05-05 08:28 47.18107 14.80340 3078 ft 218 kts 24°
2026-05-05 08:28 47.19544 14.80439 2945 ft 211 kts 316°
2026-05-05 08:28 47.20333 14.78706 2745 ft 205 kts 286°
2026-05-05 08:28 47.20553 14.76653 2377 ft 206 kts 259°
2026-05-05 08:29 47.20294 14.74594 2253 ft 207 kts 260°
2026-05-05 08:29 47.20099 14.72976 2266 ft 83 kts 254°
2026-05-05 08:29 47.19963 14.72630 2268 ft 21 kts 205°
2026-05-05 08:30 47.19902 14.72760 2265 ft 0 kts 81°